Location: Six Mile Lake
(44.9000°N, 79.7170°W)
Time: 00:42:57
(UTC-04:00)

O/OREOS (USA 219) - Pass Details

Date: 09 July 2022
Orbit: 621 x 646 km, 72.0° (Epoch: 22 May)

Event Time Altitude Azimuth Distance (km) Brightness Sun altitude
Rises 22:17:37 0° 349° (N) 2,967 ? -10.5°
Reaches altitude 10° 22:20:52 10° 13° (NNE) 2,054 ? -10.9°
Maximum altitude 22:23:30 15° 48° (NE) 1,748 ? -11.2°
Drops below altitude 10° 22:26:07 10° 83° (E) 2,047 ? -11.5°
Enters shadow 22:27:13 - 93° (E) 2,313 ? -11.7°
